Hourly Weather Roundup
Issued by NWS Central Illinois

Home | Current Version | Previous Version | Graphics & Text | Print | Product List | Glossary On
Versions: 1 2 3 4 5 6 7 8 9 10 11 12 13 14 15 16 17 18 19 20 21 22 23 24 25 26 27 28 29 30 31 32 33 34 35 36 37 38 39 40 41 42 43 44 45 46 47 48 49 50
000
NZUS43 KILX 240810
HWRILX

Area Weather Roundup
National Weather Service Lincoln IL
300 AM CDT SAT JUN 24 2017

NOTE:  "FAIR" indicates few or no clouds below 12,000 feet, with
       no sigificant weather and/or obstructions to visibility.


CITY           SKY/WX    TMP DP  RH WIND       PRES   REMARKS
Bloomington    PTCLDY    62  55  77 W9        29.97R
Champaign      PTCLDY    58  54  86 W6        29.96R
Danville       PTCLDY    60  57  90 W6        29.91R
Decatur        CLEAR     64  55  72 NW8       29.97R
Effingham      CLOUDY    63  59  85 W5        29.98R
Flora          MOCLDY    66  58  75 NW5       29.97R
Galesburg      CLEAR     59  55  86 W7        29.98R
Jacksonville   CLEAR     61  55  79 W6        30.00R
Lacon          CLEAR     62  56  81 NW10      29.94R
Lawrenceville  PTCLDY    64  61  90 NW6       29.95R
Litchfield     CLEAR     62  56  81 NW7       29.99S
$$


CITY           SKY/WX    TMP DP  RH WIND       PRES   REMARKS
Lincoln        PTCLDY    64  57  77 CALM      29.97S
Macomb         CLEAR     58  55  89 W7        30.01R
Mattoon        CLOUDY    62  57  83 NW9       29.94S
Mt Carmel AP   MOCLDY    64  59  83 NW6       29.95R
Olney-Noble AP PTCLDY    63  63 100 NW6       29.97R
Paris AP       MOCLDY    60  58  91 W6        29.95R
Peoria         PTCLDY    62  56  80 W6        29.96R
Pontiac        CLEAR     62  60  91 W9        29.94R
Rantoul        CLEAR     62  58  88 W6        29.95R
Robinson       MOCLDY    62  59  88 NW3       29.96R
Springfield    CLEAR     60  57  89 SW6       29.98S
Taylorville    CLEAR     62  56  81 W6        29.98S
$$

...REGIONAL REPORTS...


CITY           SKY/WX    TMP DP  RH WIND       PRES   REMARKS
Chicago O`Hare PTCLDY    64  55  72 W12       29.87S
Kankakee       CLEAR     59  56  91 W5        29.91R
Moline         PTCLDY    64  54  69 NW13G23   29.95S
Mount Sterling CLEAR     60  55  84 W7        30.00R
Mount Vernon   CLOUDY    65  58  78 CALM      29.98R
Pittsfield     CLEAR     63  57  80 W3        30.02S
Quincy         CLEAR     61  56  83 W6        30.01R
Rockford       CLEAR     62  55  77 NW8       29.91S
$$


CITY           SKY/WX    TMP DP  RH WIND       PRES   REMARKS
Burlington     CLEAR     62  54  74 NW10      30.00R
Cedar Rapids   CLEAR     57  54  89 NW10      29.98F
Des Moines     PTCLDY    57  50  77 W5        30.06R
Kirksville     CLEAR     61  53  75 NW9       30.06R
Ottumwa        CLEAR     56  52  86 W6        30.03R
St Louis       CLEAR     68  56  65 NW8       30.00S
$$


CITY           SKY/WX    TMP DP  RH WIND       PRES   REMARKS
Terre Haute    PTCLDY    65  56  72 NW6       29.94R
Evansville     CLOUDY    68  60  75 NW8       29.95R
Indianapolis   PTCLDY    64  58  80 W12       29.90R
Lafayette      PTCLDY    61  57  87 W8        29.90R
Madison        CLOUDY    61  55  81 W8        29.88R
Milwaukee      PTCLDY    64  54  69 W8        29.84S
$$






USA.gov is the U.S. government's official web portal to all federal, state and local government web resources and services.